Hourly Data Report for October 24, 2016

All times are specified in Local Standard Time (LST). Add 1 hour to adjust for Daylight Saving Time where and when it is observed.

KUGLUKTUK A
NUNAVUT

67°49'00.000" N
115°08'38.000" W
22.60 m
2300903
71938
YCO

Download Data

Hourly Data (October 2016)
Hourly Data Report for October 24, 2016
Temp Definition
°C
Dew Point Temp Definition
°C
Rel Hum Definition
%
Wind Dir Definition
10's deg

Wind Spd Definition
km/h
Visibility Definition
km
Stn Press Definition
kPa
Hmdx Definition


Wind Chill Definition


Weather Definition


TIME
00:00 Legend Double Dagger -3.8 -5.7 87 11 9 9.7 103.15   -8 Snow
01:00 Legend Double Dagger -4.7 -5.8 92 9 8 12.9 103.16   -8 Snow
02:00 Legend Double Dagger -4.9 -6.2 91 10 8 19.3 103.15   -8 Snow
03:00 Legend Double Dagger -6.7 -7.7 93 17 7 19.3 103.16   -10 Snow
04:00 Legend Double Dagger -5.6 -6.6 93 36 1 19.3 103.14   -6 Snow
05:00 Legend Double Dagger -5.9 -7.3 90 16 5 19.3 103.11   -8 Snow
06:00 Legend Double Dagger -5.8 -7.2 90 10 7 19.3 103.09   -9 Snow
07:00 Legend Double Dagger -7.7 -8.6 93 17 7 19.3 103.09   -11 Snow
08:00 Legend Double Dagger -7.5 -8.2 95 14 8 16.1 103.06   -12 Snow
09:00 Legend Double Dagger -6.3 -7.1 94 11 12 24.1 103.01   -11 Snow
10:00 Legend Double Dagger -6.6 -7.7 92 17 4 24.1 103.01   -9 LegendNANA
11:00 Legend Double Dagger -6.7 -7.9 91 1 3 24.1 102.98   -8 Cloudy
12:00 Legend Double Dagger -6.1 -7.3 91 34 3 24.1 102.93   -8 LegendNANA
13:00 Legend Double Dagger -4.4 -5.8 90 36 2 24.1 102.90   -5 LegendNANA
14:00 Legend Double Dagger -4.0 -5.7 88 11 4 24.1 102.84   -6 Cloudy
15:00 Legend Double Dagger -4.2 -5.9 88 13 4 24.1 102.80   -6 LegendNANA
16:00 Legend Double Dagger -4.4 -6.1 88 13 4 24.1 102.75   -6 LegendNANA
17:00 Legend Double Dagger -4.8 -7.9 79 18 14 24.1 102.73   -10 Cloudy
18:00 Legend Double Dagger -5.0 -7.8 81 22 5 24.1 102.70   -7 LegendNANA
19:00 Legend Double Dagger -5.5 -8.1 82 20 16 19.3 102.64   -11 Snow
20:00 Legend Double Dagger -7.2 -9.0 87 20 13 24.1 102.62   -13 Mainly Clear
21:00 Legend Double Dagger -7.5 -9.0 89 21 12 24.1 102.57   -13 LegendNANA
22:00 Legend Double Dagger -6.5 -8.5 86 19 15 24.1 102.53   -12 LegendNANA
23:00 Legend Double Dagger -7.3 -9.1 87 20 16 24.1 102.49   -14 Mainly Clear

Notes on Data Quality.

Legend

  • E = Estimated
  • M = Missing
  • NA = Not Available
  • ‡ = Partner data that is not subject to review by the National Climate Archives
Date modified: